Weather History for Rugby, ND

Change the Weather History Date:

Wednesday, February 13, 2013

  Actual Average Record
Temperature  
Mean Temperature 20 °F -  
Max Temperature 26 °F 19 °F 47 °F (1983)
Min Temperature 15 °F 0 °F -28 °F (1970)
Degree Days  
Heating Degree Days 44    
Moisture  
Dew Point 23 °F    
Average Humidity 96    
Maximum Humidity 100    
Minimum Humidity 86    
Precipitation  
Precipitation 2.30 in - - ()
Sea Level Pressure  
Sea Level Pressure 29.65 in    
Wind  
Wind Speed 6 mph (West)    
Max Wind Speed 10 mph    
Max Gust Speed -    
Visibility 5 miles    
Events Snow    
Averages and records for this station are not official NWS values.
T = Trace of Precipitation, MM = Missing Value Source: NWS Daily Summary

Daily Weather History Graph

Daily Weather History Graph

Search for Another Location

Airport:

Trip Planner

Search our weather history database for the weather conditions in past years. The results will help you decide how hot, cold, wet, or windy it might be!

Date:

Astronomy

Feb. 13, 2013 Rise Set
Actual Time 7:50 AM CST 5:59 PM CST
Civil Twilight 7:17 AM CST 6:31 PM CST
Nautical Twilight 6:41 AM CST 7:08 PM CST
Astronomical Twilight 6:04 AM CST 7:44 PM CST
Moon 8:58 AM CST (2/13) 10:28 PM CST (2/13)
Length of Visible Light 11h 13m
Length of Day
10h 09m
Waxing Crescent, 14% of the Moon is Illuminated
Feb 13
Waxing Crescent
Feb 17
First Quarter
Feb 25
Full
Mar 4
Last Quarter
Mar 11
New

Hourly Weather History & Observations

Time (CST) Temp. Windchill Dew Point Humidity Pressure Visibility Wind Dir Wind Speed Gust Speed Precip Events Conditions
12:15 AM 17.6 °F 8.2 °F 15.8 °F 93% 29.70 in 10.0 mi West 6.9 mph - N/A   Clear
12:35 AM 15.8 °F 5.1 °F 14.0 °F 93% 29.70 in 10.0 mi West 8.1 mph - N/A   Clear
12:55 AM 15.8 °F 10.2 °F 14.0 °F 93% 29.70 in 10.0 mi WNW 3.5 mph - N/A   Clear
1:15 AM 15.8 °F 8.6 °F 15.8 °F 100% 29.70 in 10.0 mi West 4.6 mph - N/A   Clear
1:35 AM 17.6 °F 9.3 °F 15.8 °F 93% 29.70 in 10.0 mi West 5.8 mph - N/A   Clear
1:55 AM 17.6 °F 10.7 °F 15.8 °F 93% 29.69 in 10.0 mi West 4.6 mph - N/A   Clear
2:15 AM 17.6 °F 8.2 °F 17.6 °F 100% 29.69 in 10.0 mi West 6.9 mph - N/A   Clear
2:35 AM 17.6 °F 7.3 °F 15.8 °F 93% 29.68 in 10.0 mi West 8.1 mph - N/A   Clear
2:55 AM 17.6 °F 8.2 °F 15.8 °F 93% 29.67 in 10.0 mi WSW 6.9 mph - N/A   Clear
3:15 AM 17.6 °F 7.3 °F 17.6 °F 100% 29.66 in 10.0 mi West 8.1 mph - N/A   Clear
3:35 AM 19.4 °F 10.4 °F 17.6 °F 93% 29.66 in 10.0 mi West 6.9 mph - N/A   Clear
3:55 AM 19.4 °F 10.4 °F 17.6 °F 93% 29.65 in 10.0 mi West 6.9 mph - N/A   Clear
4:15 AM 19.4 °F 8.6 °F 17.6 °F 93% 29.65 in 10.0 mi West 9.2 mph - N/A   Partly Cloudy
4:35 AM 21.2 °F 10.9 °F 19.4 °F 93% 29.65 in 10.0 mi West 9.2 mph - N/A   Scattered Clouds
4:55 AM 23.0 °F 18.4 °F 19.4 °F 86% 29.64 in 10.0 mi SW 3.5 mph - N/A   Mostly Cloudy
5:15 AM 23.0 °F 12.4 °F 19.4 °F 86% 29.64 in 10.0 mi West 10.4 mph - N/A   Scattered Clouds
5:35 AM 23.0 °F 17.0 °F 21.2 °F 93% 29.63 in 10.0 mi West 4.6 mph - N/A   Clear
5:55 AM 23.0 °F 18.4 °F 21.2 °F 93% 29.63 in 10.0 mi West 3.5 mph - N/A   Clear
6:15 AM 23.0 °F 14.7 °F 21.2 °F 93% 29.61 in 10.0 mi WSW 6.9 mph - N/A   Scattered Clouds
6:35 AM 23.0 °F 14.7 °F 21.2 °F 93% 29.61 in 10.0 mi WSW 6.9 mph - N/A   Partly Cloudy
6:55 AM 24.8 °F 16.1 °F 23.0 °F 93% 29.61 in 10.0 mi WSW 8.1 mph - N/A   Scattered Clouds
7:15 AM 24.8 °F 15.3 °F 23.0 °F 93% 29.60 in 10.0 mi WSW 9.2 mph - N/A   Mostly Cloudy
7:35 AM 24.8 °F 16.9 °F 23.0 °F 93% 29.60 in 7.0 mi WSW 6.9 mph - N/A   Overcast
7:55 AM 24.8 °F 16.9 °F 23.0 °F 93% 29.59 in 2.5 mi SW 6.9 mph - N/A   Mostly Cloudy
8:35 AM 24.8 °F 20.5 °F 24.8 °F 100% 29.59 in 3.0 mi SW 3.5 mph - N/A   Partly Cloudy
8:55 AM 24.8 °F - 24.8 °F 100% 29.58 in 2.0 mi Calm Calm - 0.01 in Snow Light Snow
9:15 AM 24.8 °F 20.5 °F 24.8 °F 100% 29.58 in 2.5 mi SW 3.5 mph - N/A Snow Light Snow
9:35 AM 26.6 °F 21.2 °F 24.8 °F 93% 29.57 in 2.5 mi SW 4.6 mph - 0.01 in Snow Light Snow
9:55 AM 26.6 °F 22.6 °F 24.8 °F 93% 29.57 in 2.0 mi WSW 3.5 mph - 0.02 in Snow Light Snow
10:15 AM 26.6 °F - 24.8 °F 93% 29.58 in 1.5 mi Calm Calm - 0.02 in Snow Light Snow
10:35 AM 26.6 °F - 26.6 °F 100% 29.58 in 1.2 mi Calm Calm - 0.05 in Snow Light Snow
10:55 AM 26.6 °F - 26.6 °F 100% 29.58 in 1.0 mi Calm Calm - 0.11 in Snow Light Snow
11:15 AM 26.6 °F 22.6 °F 26.6 °F 100% 29.58 in 1.0 mi NW 3.5 mph - 0.11 in Snow Light Snow
11:35 AM 26.6 °F 21.2 °F 26.6 °F 100% 29.58 in 0.8 mi NNW 4.6 mph - 0.34 in Snow Light Snow
11:55 AM 26.6 °F 20.0 °F 26.6 °F 100% 29.58 in 1.0 mi North 5.8 mph - 0.56 in Snow Light Snow
12:15 PM 26.6 °F 18.2 °F 26.6 °F 100% 29.59 in 0.8 mi North 8.1 mph - 0.14 in Snow Light Snow
12:35 PM 26.6 °F 18.2 °F 26.6 °F 100% 29.59 in 0.8 mi NNE 8.1 mph - 0.36 in Snow Light Snow
12:55 PM 26.6 °F 17.5 °F 24.8 °F 93% 29.59 in 0.5 mi NNE 9.2 mph - 0.59 in Snow Snow
1:15 PM 26.6 °F 19.1 °F 24.8 °F 93% 29.59 in 0.5 mi NE 6.9 mph - 0.22 in Snow Snow
1:35 PM 26.6 °F 18.2 °F 24.8 °F 93% 29.59 in 1.0 mi NNE 8.1 mph - 0.43 in Snow Light Snow
1:55 PM 26.6 °F 19.1 °F 24.8 °F 93% 29.60 in 0.8 mi NE 6.9 mph - 0.61 in Snow Light Snow
2:15 PM 26.6 °F 19.1 °F 24.8 °F 93% 29.60 in 1.2 mi ENE 6.9 mph - 0.06 in Snow Light Snow
2:35 PM 26.6 °F 19.1 °F 24.8 °F 93% 29.60 in 4.0 mi ENE 6.9 mph - 0.09 in Snow Light Snow
2:55 PM 26.6 °F 20.0 °F 24.8 °F 93% 29.61 in 2.0 mi ENE 5.8 mph - 0.12 in Snow Light Snow
3:15 PM 26.6 °F 19.1 °F 26.6 °F 100% 29.62 in 1.5 mi NE 6.9 mph - 0.03 in Snow Light Snow
3:35 PM 26.6 °F 19.1 °F 24.8 °F 93% 29.63 in 3.0 mi ENE 6.9 mph - 0.05 in Snow Light Snow
3:55 PM 26.6 °F 21.2 °F 24.8 °F 93% 29.63 in 5.0 mi ENE 4.6 mph - 0.05 in Snow Light Snow
4:15 PM 24.8 °F - 24.8 °F 100% 29.65 in 7.0 mi Calm Calm - N/A   Mostly Cloudy
4:35 PM 26.6 °F - 24.8 °F 93% 29.65 in 8.0 mi Calm Calm - N/A   Overcast
4:55 PM 26.6 °F - 24.8 °F 93% 29.66 in 7.0 mi Calm Calm - N/A   Overcast
5:15 PM 26.6 °F 21.2 °F 26.6 °F 100% 29.67 in 2.5 mi West 4.6 mph - N/A   Mostly Cloudy
5:35 PM 26.6 °F 20.0 °F 26.6 °F 100% 29.68 in 3.0 mi West 5.8 mph - N/A   Overcast
5:55 PM 26.6 °F 21.2 °F 26.6 °F 100% 29.69 in 4.0 mi WNW 4.6 mph - N/A Snow Light Snow
6:15 PM 26.6 °F 20.0 °F 26.6 °F 100% 29.70 in 8.0 mi NW 5.8 mph - N/A   Mostly Cloudy
6:35 PM 26.6 °F 19.1 °F 26.6 °F 100% 29.71 in 5.0 mi ENE 6.9 mph - N/A Snow Light Snow
6:55 PM 26.6 °F 20.0 °F 24.8 °F 93% 29.72 in 5.0 mi ESE 5.8 mph - N/A Snow Light Snow
7:15 PM 26.6 °F 21.2 °F 24.8 °F 93% 29.72 in 3.0 mi ESE 4.6 mph - 0.01 in Snow Light Snow
7:35 PM 26.6 °F - 24.8 °F 93% 29.72 in 3.0 mi Calm Calm - 0.02 in Snow Light Snow
7:55 PM 24.8 °F 20.5 °F 24.8 °F 100% 29.73 in 2.5 mi SSE 3.5 mph - 0.04 in Snow Light Snow
8:15 PM 24.8 °F - 24.8 °F 100% 29.74 in 3.0 mi Calm Calm - N/A Snow Light Snow
8:35 PM 24.8 °F - 24.8 °F 100% 29.74 in 4.0 mi Calm Calm - 0.01 in Snow Light Snow
8:55 PM 24.8 °F - 24.8 °F 100% 29.74 in 3.0 mi Calm Calm - 0.02 in Snow Light Snow
9:15 PM 24.8 °F - 24.8 °F 100% 29.74 in 2.0 mi Calm Calm - 0.02 in Snow Light Snow
9:35 PM 24.8 °F 20.5 °F 24.8 °F 100% 29.74 in 2.5 mi SE 3.5 mph - 0.03 in Snow Light Snow
9:55 PM 24.8 °F 19.1 °F 24.8 °F 100% 29.74 in 2.5 mi SE 4.6 mph - 0.06 in Snow Light Snow
10:15 PM 24.8 °F 16.9 °F 24.8 °F 100% 29.74 in 2.0 mi ESE 6.9 mph - 0.02 in Snow Light Snow
10:35 PM 24.8 °F 16.1 °F 24.8 °F 100% 29.74 in 2.5 mi East 8.1 mph - 0.05 in Snow Light Snow
10:55 PM 24.8 °F 16.1 °F 23.0 °F 93% 29.74 in 6.0 mi ESE 8.1 mph - 0.05 in Snow Light Snow
11:15 PM 24.8 °F 15.3 °F 23.0 °F 93% 29.75 in 3.0 mi ESE 9.2 mph - 0.01 in Snow Light Snow
11:35 PM 24.8 °F 15.3 °F 23.0 °F 93% 29.75 in 2.5 mi East 9.2 mph - 0.03 in Snow Light Snow
11:55 PM 24.8 °F 15.3 °F 23.0 °F 93% 29.76 in 2.0 mi East 9.2 mph - 0.06 in Snow Light Snow